Flag for China Weather past 2 weeks in Shenzhen, Guangdong, China

Now
59 °F

More clouds than sun.


Feels Like: 58 °F
Forecast: 62 / 71 °F
Wind: 6 mph from Northeast

Location: Shenzhen Airport

Current Time: Mar 4, 2015 at 12:21:04 PM

Latest Report: Mar 4, 2015 at 11:00 AM


Visibility: N/A

Pressure: 30.04 "Hg

Humidity: 88%

Dew point: 55 °F

Location of ShenzhenLocation

Historic Weather in Shenzhen — Graph

°F

Shenzhen temperature yesterday

Maximum temperature yesterday: 72 °F (at 12:00 PM)
Minimum temperature yesterday: 63 °F (at 5:00 AM)
Average temperature yesterday: 67 °F

Past Weeks' High & Low Weather Summary

 TemperatureHumidityPressure
High79 °F (Feb 25, 12:00 PM)94% (Feb 21, 7:00 AM)30.21 "Hg (Feb 21, 7:00 AM)
Low57 °F (Mar 4, 3:00 AM)49% (Mar 1, 1:00 PM)29.80 "Hg (Mar 3, 4:00 PM)
Average69 °F78%29.99 "Hg
* Reported Feb 17 10:00 AM — Mar 4 10:00 AM, Shenzhen, Weather by CustomWeather, © 2015

Note: Actual official high and low records may vary slightly from our data, if they occured in-between our weather recording intervals... More about our weather records

Advertising

Shenzhen weather history for previous 24 hours

 ConditionsComfort  
Time TempWeatherWind HumidityBarometerVisibility
10:00 AM
Wed, Mar 4
59 °FMore clouds than sun.10 mph82%30.04 "HgN/A
9:00 AM57 °FMore clouds than sun.8 mph88%30.04 "HgN/A
8:00 AM57 °FMostly cloudy.8 mph88%30.01 "HgN/A
7:00 AM57 °FOvercast.10 mph88%29.98 "HgN/A
6:00 AM57 °FLight rain. Mostly cloudy.10 mph88%29.95 "HgN/A
5:00 AM57 °FLight rain. Mostly cloudy.13 mph94%29.92 "HgN/A
4:00 AM57 °FLight rain. Mostly cloudy.10 mph94%29.92 "Hg4 mi
3:00 AM57 °FLight rain. Mostly cloudy.10 mph94%29.92 "Hg4 mi
2:00 AM59 °FLight rain. Fog.8 mph94%29.92 "Hg3 mi
1:00 AM59 °FMostly cloudy.10 mph94%29.92 "Hg4 mi
12:00 AM61 °FMostly cloudy.13 mph94%29.92 "Hg4 mi
11:00 PM
Tue, Mar 3
63 °FFog.10 mph94%29.92 "Hg3 mi
10:00 PM63 °FFog.10 mph94%29.89 "Hg2 mi
9:00 PM64 °FFog.8 mph94%29.86 "Hg2 mi
8:00 PM66 °FLight rain. Fog.8 mph94%29.86 "Hg1 mi
7:00 PM68 °FLight rain. Fog.8 mph88%29.83 "Hg1 mi
6:00 PM72 °FFog.3 mph83%29.83 "Hg3 mi
5:00 PM70 °FFog.6 mph83%29.83 "Hg3 mi
4:00 PM72 °FPartly sunny.6 mph78%29.80 "Hg4 mi
3:00 PM72 °FPartly sunny.3 mph78%29.83 "Hg4 mi
2:00 PM70 °FScattered clouds.3 mph83%29.83 "Hg4 mi
1:00 PM70 °FScattered clouds.3 mph78%29.89 "Hg4 mi
12:00 PM72 °FScattered clouds.6 mph73%29.92 "Hg4 mi
Weather by CustomWeather, © 2015

See weather overviewHow to use our weather pages